Location: Fuglau
(48.6333°N, 15.5500°E)
Time: 08:35:10
(UTC+00:00)

NOSS 2-3 (D) - Pass Details

Date: 27 February 2020
Orbit: 583 x 1629 km, 63.4° (Epoch: 25 March)

Event Time Altitude Azimuth Distance (km) Brightness Sun altitude
Rises 17:17:02 0° 220° (SW) 2,815 7.7 -7.3°
Reaches altitude 10° 17:19:08 10° 220° (SW) 1,957 6.8 -7.7°
Maximum altitude 17:23:27 89° 310° (NW) 677 3.8 -8.4°
Drops below altitude 10° 17:28:41 10° 42° (NE) 2,350 6.1 -9.2°
Enters shadow 17:31:18 - 42° (NE) 3,394 6.9 -9.7°
